Weather History for KCHA - April, 2013

Change the Weather History Date:

Thursday, April 4, 2013

  Actual Average Record
Temperature  
Mean Temperature 46 °F 57 °F  
Max Temperature 49 °F 70 °F 88 °F (1934)
Min Temperature 42 °F 45 °F 29 °F (1975)
Degree Days  
Heating Degree Days 19 8  
Month to date heating degree days 56 35  
Since 1 July heating degree days 2923 3061  
Cooling Degree Days 0 1  
Month to date cooling degree days 0 4  
Year to date cooling degree days 5 11  
Moisture  
Dew Point 43 °F    
Average Humidity 92    
Maximum Humidity 100    
Minimum Humidity 83    
Precipitation  
Precipitation 1.28 in 0.14 in 5.99 in (1911)
Month to date precipitation 1.28 0.57  
Year to date precipitation 19.67 15.30  
Snow  
Snow 0.00 in 0.00 in - ()
Month to date snowfall 0.0 0.0  
Since 1 July snowfall 0.3 3.8  
Snow Depth 0.00 in    
Sea Level Pressure  
Sea Level Pressure 30.06 in    
Wind  
Wind Speed 5 mph (NE)    
Max Wind Speed 10 mph    
Max Gust Speed 14 mph    
Visibility 4 miles    
Events Rain    
T = Trace of Precipitation, MM = Missing Value Source: NWS Daily Summary

Daily Weather History Graph

Daily Weather History Graph

Search for Another Location

Airport or City:

Trip Planner

Search our weather history database for the weather conditions in past years. The results will help you decide how hot, cold, wet, or windy it might be!

Date:

Astronomy

Apr. 04, 2013 Rise Set
Actual Time 7:23 AM EDT 8:04 PM EDT
Civil Twilight 6:57 AM EDT 8:30 PM EDT
Nautical Twilight 6:27 AM EDT 9:00 PM EDT
Astronomical Twilight 5:56 AM EDT 9:31 PM EDT
Moon 3:36 AM EDT (4/4) 2:34 PM EDT (4/4)
Length of Visible Light 13h 32m
Length of Day
12h 41m
Waning Crescent, 34% of the Moon is Illuminated
Apr 4
Waning Crescent
Apr 10
New
Apr 18
First Quarter
Apr 25
Full
May 2
Last Quarter

Hourly Weather History & Observations

Time (EDT) Temp. Windchill Dew Point Humidity Pressure Visibility Wind Dir Wind Speed Gust Speed Precip Events Conditions
12:53 AM 48.9 °F - 41.0 °F 74% 30.17 in 10.0 mi SSW 5.8 mph - 0.00 in Rain Light Rain
1:53 AM 46.9 °F - 44.1 °F 90% 30.17 in 8.0 mi Calm Calm - 0.01 in Rain Light Rain
2:53 AM 46.9 °F - 45.0 °F 93% 30.14 in 8.0 mi Calm Calm - 0.04 in Rain Light Rain
3:53 AM 46.9 °F - 45.0 °F 93% 30.13 in 9.0 mi Calm Calm - 0.02 in Rain Light Rain
4:53 AM 46.9 °F - 43.0 °F 86% 30.11 in 10.0 mi NNE 3.5 mph - 0.03 in Rain Light Rain
5:53 AM 45.0 °F 41.8 °F 39.9 °F 82% 30.09 in 7.0 mi NNE 5.8 mph - 0.04 in Rain Light Rain
6:53 AM 43.0 °F 37.7 °F 39.9 °F 89% 30.08 in 3.0 mi NNE 9.2 mph - 0.12 in Rain Rain
7:11 AM 42.8 °F 39.3 °F 41.0 °F 93% 30.09 in 2.5 mi North 5.8 mph - 0.04 in Rain Heavy Rain
7:31 AM 42.8 °F 37.0 °F 41.0 °F 93% 30.09 in 1.5 mi NNE 10.4 mph - 0.13 in Rain Heavy Rain
7:49 AM 42.8 °F 39.3 °F 42.8 °F 100% 30.10 in 1.5 mi North 5.8 mph - 0.24 in Rain Heavy Rain
7:53 AM 43.0 °F 38.8 °F 42.1 °F 97% 30.09 in 1.5 mi North 6.9 mph - 0.25 in Rain Heavy Rain
8:35 AM 42.8 °F 38.0 °F 42.8 °F 100% 30.10 in 1.2 mi NNE 8.1 mph - 0.22 in Rain Rain
8:50 AM 42.8 °F 40.1 °F 42.8 °F 100% 30.11 in 1.2 mi NNE 4.6 mph - 0.29 in Rain Heavy Rain
8:53 AM 43.0 °F 39.5 °F 42.1 °F 97% 30.11 in 1.2 mi NNE 5.8 mph - 0.30 in Rain Rain
9:09 AM 42.8 °F 40.1 °F 42.8 °F 100% 30.11 in 1.5 mi NNE 4.6 mph - 0.04 in Rain Light Rain
9:34 AM 42.8 °F 38.6 °F 42.8 °F 100% 30.10 in 2.0 mi NNE 6.9 mph - 0.04 in Rain Light Rain
9:49 AM 42.8 °F 38.6 °F 42.8 °F 100% 30.10 in 3.0 mi North 6.9 mph - 0.04 in Rain Light Rain
9:53 AM 43.0 °F 39.5 °F 42.1 °F 97% 30.11 in 3.0 mi NNE 5.8 mph - 0.04 in Rain Light Rain
10:16 AM 42.8 °F 37.5 °F 41.0 °F 93% 30.09 in 2.0 mi NNE 9.2 mph - 0.01 in Rain Light Rain
10:28 AM 42.8 °F 38.0 °F 42.8 °F 100% 30.10 in 1.5 mi NNE 8.1 mph - 0.01 in Rain Light Rain
10:51 AM 42.8 °F 38.6 °F 42.8 °F 100% 30.10 in 1.5 mi North 6.9 mph - 0.05 in Rain Rain
10:53 AM 43.0 °F 38.8 °F 42.1 °F 97% 30.10 in 1.5 mi North 6.9 mph - 0.05 in Rain Rain
11:35 AM 42.8 °F 39.3 °F 42.8 °F 100% 30.11 in 2.0 mi NNE 5.8 mph - 0.11 in Rain Light Rain
11:53 AM 44.1 °F 40.8 °F 43.0 °F 96% 30.12 in 2.0 mi NNE 5.8 mph - 0.13 in Rain Rain
11:55 AM 44.6 °F 41.4 °F 42.8 °F 93% 30.12 in 1.8 mi NNE 5.8 mph - 0.01 in Rain Rain
12:53 PM 44.1 °F 39.5 °F 43.0 °F 96% 30.10 in 1.8 mi NE 8.1 mph - 0.14 in Rain Rain
1:19 PM 44.6 °F 41.4 °F 42.8 °F 93% 30.09 in 4.0 mi East 5.8 mph - 0.03 in Rain Light Rain
1:49 PM 44.6 °F 43.1 °F 44.6 °F 100% 30.08 in 2.0 mi ESE 3.5 mph - 0.03 in Rain Light Rain
1:53 PM 45.0 °F 43.5 °F 44.1 °F 97% 30.09 in 2.0 mi East 3.5 mph - 0.03 in Rain Light Rain
1:57 PM 44.6 °F 43.1 °F 44.6 °F 100% 30.08 in 1.8 mi East 3.5 mph - 0.01 in Rain Light Rain
2:29 PM 44.6 °F 43.1 °F 42.8 °F 93% 30.07 in 2.5 mi ENE 3.5 mph - 0.02 in Rain Light Rain
2:53 PM 44.6 °F 42.2 °F 42.8 °F 93% 30.06 in 2.5 mi ENE 4.6 mph - N/A Rain Light Rain
3:21 PM 44.6 °F 41.4 °F 42.8 °F 93% 30.05 in 3.0 mi East 5.8 mph - 0.00 in Rain Light Rain
3:41 PM 44.6 °F 42.2 °F 44.6 °F 100% 30.04 in 2.0 mi NE 4.6 mph - 0.01 in Rain Light Rain
3:47 PM 44.6 °F 42.2 °F 44.6 °F 100% 30.03 in 1.8 mi NE 4.6 mph - 0.01 in Rain Light Rain
3:53 PM 45.0 °F 41.8 °F 44.1 °F 97% 30.04 in 1.8 mi NE 5.8 mph - 0.01 in Rain Light Rain
4:05 PM 44.6 °F 40.7 °F 42.8 °F 93% 30.03 in 3.0 mi ENE 6.9 mph - 0.00 in Rain Light Rain
4:27 PM 44.6 °F 42.2 °F 42.8 °F 93% 30.03 in 3.0 mi NE 4.6 mph - 0.01 in Rain Light Rain
4:38 PM 44.6 °F 42.2 °F 44.6 °F 100% 30.02 in 2.5 mi NE 4.6 mph - 0.03 in Rain Rain
4:50 PM 44.6 °F 42.2 °F 44.6 °F 100% 30.02 in 2.0 mi NE 4.6 mph - N/A Rain Light Rain
4:53 PM 45.0 °F 42.6 °F 44.1 °F 97% 30.03 in 2.0 mi NNE 4.6 mph - 0.03 in Rain Light Rain
5:29 PM 44.6 °F 40.7 °F 44.6 °F 100% 30.02 in 4.0 mi NNE 6.9 mph - 0.01 in   Light Drizzle
5:53 PM 45.0 °F 42.6 °F 44.1 °F 97% 30.02 in 2.0 mi NE 4.6 mph - 0.01 in   Light Drizzle
6:24 PM 46.4 °F 44.3 °F 44.6 °F 93% 30.01 in 3.0 mi ENE 4.6 mph - 0.01 in Rain Light Rain
6:45 PM 44.6 °F 41.4 °F 44.6 °F 100% 29.99 in 4.0 mi ENE 5.8 mph - 0.01 in   Overcast
6:53 PM 46.0 °F 43.9 °F 44.1 °F 93% 30.00 in 5.0 mi NE 4.6 mph - 0.01 in   Overcast
7:01 PM 46.4 °F 43.5 °F 44.6 °F 93% 30.00 in 6.0 mi NNE 5.8 mph - N/A   Overcast
7:53 PM 46.0 °F 43.9 °F 44.1 °F 93% 30.00 in 7.0 mi NNE 4.6 mph - N/A   Overcast
8:05 PM 46.4 °F 43.5 °F 44.6 °F 93% 30.00 in 7.0 mi NE 5.8 mph - N/A   Overcast
8:50 PM 46.4 °F 44.3 °F 44.6 °F 93% 29.99 in 6.0 mi NNE 4.6 mph - N/A   Overcast
8:53 PM 46.0 °F 44.8 °F 44.1 °F 93% 29.99 in 6.0 mi NE 3.5 mph - N/A   Overcast
9:53 PM 46.0 °F 44.8 °F 44.1 °F 93% 30.00 in 6.0 mi NE 3.5 mph - N/A   Overcast
10:10 PM 46.4 °F 43.5 °F 44.6 °F 93% 30.00 in 6.0 mi NE 5.8 mph - N/A   Overcast
10:28 PM 46.4 °F 43.5 °F 44.6 °F 93% 30.00 in 4.0 mi NNE 5.8 mph - N/A   Overcast
10:53 PM 46.0 °F 43.1 °F 44.1 °F 93% 30.01 in 4.0 mi NNE 5.8 mph - N/A   Overcast
11:40 PM 44.6 °F 40.7 °F 44.6 °F 100% 30.00 in 1.8 mi NE 6.9 mph - 0.00 in   Light Drizzle
11:50 PM 44.6 °F 40.7 °F 44.6 °F 100% 30.00 in 3.0 mi NNE 6.9 mph - 0.00 in   Light Drizzle
11:53 PM 45.0 °F 41.2 °F 44.1 °F 97% 30.00 in 3.0 mi NNE 6.9 mph - 0.00 in   Light Drizzle